Weather History for NW Arkansas Airport, AR

Change the Weather History Date:

Wednesday, December 5, 2012

  Actual Average Record
Temperature  
Mean Temperature 45 °F -  
Max Temperature 57 °F - - ()
Min Temperature 33 °F - - ()
Degree Days  
Heating Degree Days 20    
Moisture  
Dew Point 33 °F    
Average Humidity 64    
Maximum Humidity 89    
Minimum Humidity 36    
Precipitation  
Precipitation 0.00 in - - ()
Sea Level Pressure  
Sea Level Pressure 30.22 in    
Wind  
Wind Speed 5 mph (East)    
Max Wind Speed 10 mph    
Max Gust Speed -    
Visibility 10 miles    
Events      
T = Trace of Precipitation, MM = Missing Value Source: NWS Daily Summary

Daily Weather History Graph

Daily Weather History Graph

Search for Another Location

Airport:

Trip Planner

Search our weather history database for the weather conditions in past years. The results will help you decide how hot, cold, wet, or windy it might be!

Date:

Astronomy

Dec. 05, 2012 Rise Set
Actual Time 7:14 AM CST 5:02 PM CST
Civil Twilight 6:45 AM CST 5:30 PM CST
Nautical Twilight 6:13 AM CST 6:02 PM CST
Astronomical Twilight 5:42 AM CST 6:33 PM CST
Moon 11:43 PM CST (12/5) 11:46 AM CST (12/5)
Length of Visible Light 10h 44m
Length of Day
9h 48m
Waning Gibbous, 59% of the Moon is Illuminated
Dec 5
Waning Gibbous
Dec 6
Last Quarter
Dec 13
New
Dec 19
First Quarter
Dec 28
Full

Hourly Weather History & Observations

Time (CST) Temp. Windchill Dew Point Humidity Pressure Visibility Wind Dir Wind Speed Gust Speed Precip Events Conditions
12:53 AM 37.9 °F 34.4 °F 33.1 °F 83% 30.30 in 10.0 mi North 4.6 mph - N/A   Clear
1:53 AM 37.9 °F 34.4 °F 32.0 °F 79% 30.31 in 10.0 mi NE 4.6 mph - N/A   Clear
2:53 AM 37.9 °F 35.5 °F 32.0 °F 79% 30.31 in 10.0 mi North 3.5 mph - N/A   Clear
3:53 AM 36.0 °F 31.1 °F 30.9 °F 82% 30.31 in 10.0 mi NNE 5.8 mph - N/A   Clear
4:53 AM 36.0 °F 33.3 °F 30.9 °F 82% 30.31 in 10.0 mi NE 3.5 mph - N/A   Clear
5:53 AM 34.0 °F 29.8 °F 30.9 °F 89% 30.32 in 10.0 mi North 4.6 mph - N/A   Clear
6:53 AM 33.1 °F - 30.0 °F 89% 30.33 in 10.0 mi Calm Calm - N/A   Clear
8:53 AM 41.0 °F - 37.0 °F 86% 30.34 in 10.0 mi Calm Calm - N/A   Clear
9:53 AM 46.0 °F 42.5 °F 37.0 °F 71% 30.33 in 10.0 mi ESE 6.9 mph - N/A   Clear
10:53 AM 52.0 °F - 34.0 °F 50% 30.31 in 10.0 mi East 9.2 mph - N/A   Clear
11:53 AM 55.0 °F - 35.1 °F 47% 30.27 in 10.0 mi ESE 9.2 mph - N/A   Clear
12:53 PM 57.0 °F - 33.1 °F 40% 30.23 in 10.0 mi ESE 5.8 mph - N/A   Unknown
1:53 PM 57.9 °F - 30.9 °F 36% 30.20 in 10.0 mi East 10.4 mph - N/A   Clear
2:53 PM 57.9 °F - 30.9 °F 36% 30.18 in 10.0 mi East 8.1 mph - N/A   Clear
3:53 PM 57.9 °F - 32.0 °F 37% 30.17 in 10.0 mi ESE 5.8 mph - N/A   Clear
4:53 PM 52.0 °F - 30.9 °F 45% 30.17 in 10.0 mi East 4.6 mph - N/A   Clear
5:53 PM 51.1 °F - 30.9 °F 46% 30.15 in 10.0 mi East 6.9 mph - N/A   Clear
6:53 PM 50.0 °F - 33.1 °F 52% 30.13 in 10.0 mi ESE 10.4 mph - N/A   Clear
7:53 PM 48.9 °F - 35.1 °F 59% 30.13 in 10.0 mi ESE 8.1 mph - N/A   Clear
8:53 PM 48.0 °F - 35.1 °F 61% 30.10 in 10.0 mi SE 9.2 mph - N/A   Clear
9:53 PM 45.0 °F 43.5 °F 36.0 °F 71% 30.10 in 10.0 mi SE 3.5 mph - N/A   Clear
10:53 PM 43.0 °F - 35.1 °F 74% 30.08 in 10.0 mi Calm Calm - N/A   Clear
11:53 PM 44.1 °F 41.5 °F 35.1 °F 71% 30.07 in 10.0 mi ESE 4.6 mph - N/A   Clear